| time (UTC) | temp F | wind direction | speed knots | gust knots | rain 1hr in | rain 24hr in | rain mn in | humidity % | barometer mb |
| 20260508125523 | 83 | 352 | 0.9 | 2.6 | 0.00 | 0.00 | 0.00 | 71 | 1011.8 |
| 20260508125023 | 84 | 360 | 1.7 | 3.5 | 0.00 | 0.00 | 0.00 | 70 | 1011.7 |
| 20260508124538 | 84 | 17 | 1.7 | 3.5 | 0.00 | 0.00 | 0.00 | 69 | 1011.5 |
| 20260508124023 | 84 | 17 | 0.9 | 2.6 | 0.00 | 0.00 | 0.00 | 68 | 1011.4 |
| 20260508123524 | 84 | 101 | 1.7 | 3.5 | 0.00 | 0.00 | 0.00 | 68 | 1011.2 |
| 20260508123046 | 84 | 98 | 2.6 | 3.5 | 0.00 | 0.00 | 0.00 | 68 | 1011.1 |
| 20260508122523 | 84 | 105 | 2.6 | 5.2 | 0.00 | 0.00 | 0.00 | 68 | 1011.0 |
| 20260508122020 | 85 | 117 | 2.6 | 7.0 | 0.00 | 0.00 | 0.00 | 68 | 1010.9 |
| 20260508121545 | 85 | 105 | 3.5 | 7.0 | 0.00 | 0.00 | 0.00 | 67 | 1010.8 |
| 20260508121023 | 85 | 105 | 3.5 | 7.0 | 0.00 | 0.00 | 0.00 | 67 | 1010.7 |
| 20260508120522 | 85 | 114 | 4.3 | 7.0 | 0.00 | 0.00 | 0.00 | 67 | 1010.6 |
| 20260508120039 | 85 | 140 | 3.5 | 8.7 | 0.00 | 0.00 | 0.00 | 67 | 1010.5 |
| 20260508115521 | 85 | 113 | 5.2 | 8.7 | 0.00 | 0.00 | 0.00 | 66 | 1010.4 |
| 20260508115019 | 86 | 119 | 4.3 | 8.7 | 0.00 | 0.00 | 0.00 | 66 | 1010.4 |
| 20260508114538 | 86 | 107 | 5.2 | 9.6 | 0.00 | 0.00 | 0.00 | 65 | 1010.2 |
| 20260508114022 | 86 | 124 | 7.0 | 9.6 | 0.00 | 0.00 | 0.00 | 65 | 1010.1 |
| 20260508113523 | 86 | 121 | 6.1 | 9.6 | 0.00 | 0.00 | 0.00 | 64 | 1009.9 |
| 20260508113040 | 86 | 110 | 7.8 | 9.6 | 0.00 | 0.00 | 0.00 | 64 | 1009.9 |
| 20260508112523 | 87 | 126 | 6.1 | 9.6 | 0.00 | 0.00 | 0.00 | 64 | 1009.9 |
| 20260508112023 | 87 | 112 | 7.0 | 10.4 | 0.00 | 0.00 | 0.00 | 62 | 1009.8 |
| 20260508111538 | 87 | 124 | 7.0 | 11.3 | 0.00 | 0.00 | 0.00 | 62 | 1009.7 |
| 20260508111023 | 87 | 103 | 7.8 | 12.2 | 0.00 | 0.00 | 0.00 | 62 | 1009.6 |
| 20260508110523 | 87 | 136 | 7.8 | 12.2 | 0.00 | 0.00 | 0.00 | 61 | 1009.8 |
| 20260508110039 | 87 | 121 | 9.6 | 12.2 | 0.00 | 0.00 | 0.00 | 61 | 1009.7 |
| 20260508105523 | 88 | 119 | 8.7 | 12.2 | 0.00 | 0.00 | 0.00 | 61 | 1009.6 |
| 20260508105020 | 88 | 126 | 6.1 | 10.4 | 0.00 | 0.00 | 0.00 | 61 | 1009.6 |
| 20260508104538 | 88 | 128 | 6.1 | 11.3 | 0.00 | 0.00 | 0.00 | 62 | 1009.5 |
| 20260508104020 | 88 | 124 | 8.7 | 11.3 | 0.00 | 0.00 | 0.00 | 61 | 1009.4 |
| 20260508103520 | 88 | 113 | 7.8 | 11.3 | 0.00 | 0.00 | 0.00 | 61 | 1009.3 |
| 20260508103041 | 89 | 132 | 6.1 | 9.6 | 0.00 | 0.00 | 0.00 | 62 | 1009.2 |
| 20260508102520 | 89 | 126 | 7.0 | 9.6 | 0.00 | 0.00 | 0.00 | 62 | 1009.2 |
| 20260508102021 | 89 | 127 | 7.0 | 9.6 | 0.00 | 0.00 | 0.00 | 62 | 1009.2 |
| 20260508101540 | 90 | 121 | 7.0 | 9.6 | 0.00 | 0.00 | 0.00 | 61 | 1009.2 |
| 20260508101021 | 90 | 122 | 6.1 | 9.6 | 0.00 | 0.00 | 0.00 | 61 | 1009.1 |
| 20260508100524 | 90 | 112 | 6.1 | 12.2 | 0.00 | 0.00 | 0.00 | 58 | 1009.0 |
| 20260508100036 | 90 | 113 | 7.0 | 12.2 | 0.00 | 0.00 | 0.00 | 58 | 1008.9 |
| 20260508095519 | 91 | 125 | 7.0 | 12.2 | 0.00 | 0.00 | 0.00 | 58 | 1008.8 |
| 20260508095020 | 91 | 109 | 7.0 | 11.3 | 0.00 | 0.00 | 0.00 | 58 | 1008.7 |
| 20260508094541 | 91 | 136 | 7.0 | 11.3 | 0.00 | 0.00 | 0.00 | 58 | 1008.6 |
| 20260508094022 | 91 | 121 | 7.8 | 11.3 | 0.00 | 0.00 | 0.00 | 59 | 1008.5 |
| 20260508091545 | 93 | 107 | 9.6 | 14.8 | 0.00 | 0.00 | 0.00 | 56 | 1008.3 |
| 20260508091021 | 93 | 115 | 9.6 | 14.8 | 0.00 | 0.00 | 0.00 | 55 | 1008.2 |
| 20260508090522 | 93 | 111 | 8.7 | 14.8 | 0.00 | 0.00 | 0.00 | 57 | 1008.2 |
| 20260508090058 | 93 | 94 | 8.7 | 14.8 | 0.00 | 0.00 | 0.00 | 56 | 1008.0 |
| 20260508085522 | 93 | 121 | 7.8 | 12.2 | 0.00 | 0.00 | 0.00 | 57 | 1008.0 |
| 20260508085023 | 93 | 126 | 8.7 | 13.9 | 0.00 | 0.00 | 0.00 | 56 | 1008.0 |
| 20260508084542 | 93 | 153 | 10.4 | 13.9 | 0.00 | 0.00 | 0.00 | 55 | 1007.9 |
| 20260508084022 | 93 | 119 | 10.4 | 13.9 | 0.00 | 0.00 | 0.00 | 56 | 1007.9 |
| 20260508083524 | 93 | 112 | 8.7 | 13.9 | 0.00 | 0.00 | 0.00 | 58 | 1007.8 |
| 20260508083035 | 93 | 138 | 7.8 | 13.0 | 0.00 | 0.00 | 0.00 | 57 | 1007.8 |
| 20260508082522 | 94 | 148 | 7.8 | 13.0 | 0.00 | 0.00 | 0.00 | 55 | 1007.7 |
| 20260508082022 | 94 | 158 | 8.7 | 13.0 | 0.00 | 0.00 | 0.00 | 56 | 1007.7 |
| 20260508081543 | 94 | 126 | 9.6 | 13.0 | 0.00 | 0.00 | 0.00 | 54 | 1007.6 |
| 20260508081022 | 94 | 122 | 9.6 | 13.0 | 0.00 | 0.00 | 0.00 | 56 | 1007.7 |
| 20260508080527 | 94 | 132 | 8.7 | 13.0 | 0.00 | 0.00 | 0.00 | 57 | 1007.6 |
| 20260508080040 | 94 | 133 | 7.8 | 13.9 | 0.00 | 0.00 | 0.00 | 58 | 1007.6 |
| 20260508075523 | 94 | 135 | 10.4 | 13.9 | 0.00 | 0.00 | 0.00 | 57 | 1007.5 |
| 20260508075022 | 94 | 117 | 10.4 | 13.9 | 0.00 | 0.00 | 0.00 | 57 | 1007.5 |
| 20260508074540 | 95 | 122 | 9.6 | 14.8 | 0.00 | 0.00 | 0.00 | 55 | 1007.5 |
| 20260508074022 | 95 | 119 | 8.7 | 14.8 | 0.00 | 0.00 | 0.00 | 55 | 1007.7 |
| 20260508073522 | 95 | 153 | 10.4 | 14.8 | 0.00 | 0.00 | 0.00 | 56 | 1007.7 |
| 20260508073054 | 95 | 123 | 8.7 | 13.0 | 0.00 | 0.00 | 0.00 | 55 | 1007.6 |
| 20260508072524 | 95 | 103 | 7.8 | 13.9 | 0.00 | 0.00 | 0.00 | 55 | 1007.7 |
| 20260508072020 | 95 | 109 | 9.6 | 13.9 | 0.00 | 0.00 | 0.00 | 55 | 1007.7 |
| 20260508071541 | 95 | 140 | 7.8 | 12.2 | 0.00 | 0.00 | 0.00 | 55 | 1007.9 |
| 20260508071022 | 95 | 121 | 7.0 | 10.4 | 0.00 | 0.00 | 0.00 | 55 | 1007.8 |
| 20260508070523 | 95 | 135 | 5.2 | 9.6 | 0.00 | 0.00 | 0.00 | 56 | 1007.7 |
| 20260508070047 | 95 | 124 | 4.3 | 13.0 | 0.00 | 0.00 | 0.00 | 58 | 1007.8 |
| 20260508065524 | 95 | 86 | 7.8 | 13.0 | 0.00 | 0.00 | 0.00 | 57 | 1007.9 |
| 20260508065028 | 95 | 114 | 7.0 | 12.2 | 0.00 | 0.00 | 0.00 | 55 | 1007.9 |
| 20260508064538 | 95 | 119 | 7.8 | 13.0 | 0.00 | 0.00 | 0.00 | 57 | 1008.0 |
| 20260508064021 | 94 | 113 | 8.7 | 13.0 | 0.00 | 0.00 | 0.00 | 55 | 1008.0 |
| 20260508063525 | 94 | 136 | 10.4 | 14.8 | 0.00 | 0.00 | 0.00 | 54 | 1008.2 |
| 20260508063038 | 95 | 149 | 9.6 | 14.8 | 0.00 | 0.00 | 0.00 | 55 | 1008.3 |
| 20260508062524 | 95 | 127 | 10.4 | 15.6 | 0.00 | 0.00 | 0.00 | 54 | 1008.3 |
| 20260508062020 | 95 | 132 | 8.7 | 15.6 | 0.00 | 0.00 | 0.00 | 55 | 1008.3 |
| 20260508061541 | 95 | 117 | 11.3 | 16.5 | 0.00 | 0.00 | 0.00 | 54 | 1008.6 |
| 20260508061023 | 95 | 126 | 9.6 | 16.5 | 0.00 | 0.00 | 0.00 | 58 | 1008.7 |
| 20260508060523 | 95 | 112 | 11.3 | 16.5 | 0.00 | 0.00 | 0.00 | 57 | 1008.6 |
| 20260508060100 | 94 | 127 | 7.8 | 12.2 | 0.00 | 0.00 | 0.00 | 61 | 1008.5 |
| 20260508055523 | 94 | 161 | 6.1 | 12.2 | 0.00 | 0.00 | 0.00 | 59 | 1008.7 |
| 20260508055023 | 95 | 151 | 8.7 | 12.2 | 0.00 | 0.00 | 0.00 | 59 | 1008.7 |
| 20260508054541 | 95 | 140 | 7.0 | 13.0 | 0.00 | 0.00 | 0.00 | 57 | 1008.7 |
| 20260508054024 | 94 | 121 | 7.8 | 14.8 | 0.00 | 0.00 | 0.00 | 58 | 1009.0 |
| 20260508053523 | 94 | 136 | 9.6 | 14.8 | 0.00 | 0.00 | 0.00 | 58 | 1009.1 |
| 20260508053038 | 94 | 123 | 8.7 | 13.9 | 0.00 | 0.00 | 0.00 | 63 | 1009.0 |
| 20260508052526 | 94 | 144 | 6.1 | 12.2 | 0.00 | 0.00 | 0.00 | 64 | 1009.0 |
| 20260508052026 | 94 | 154 | 6.1 | 14.8 | 0.00 | 0.00 | 0.00 | 59 | 1009.1 |
| 20260508051555 | 94 | 127 | 8.7 | 14.8 | 0.00 | 0.00 | 0.00 | 59 | 1009.2 |
| 20260508051030 | 93 | 125 | 7.8 | 11.3 | 0.00 | 0.00 | 0.00 | 60 | 1009.3 |
| 20260508050524 | 92 | 142 | 6.1 | 13.9 | 0.00 | 0.00 | 0.00 | 64 | 1009.4 |
| 20260508050039 | 93 | 158 | 7.0 | 13.9 | 0.00 | 0.00 | 0.00 | 62 | 1009.5 |
| 20260508045523 | 94 | 161 | 7.8 | 13.9 | 0.00 | 0.00 | 0.00 | 61 | 1009.6 |
| 20260508045023 | 94 | 170 | 5.2 | 11.3 | 0.00 | 0.00 | 0.00 | 65 | 1009.6 |
| 20260508044538 | 94 | 97 | 7.0 | 13.0 | 0.00 | 0.00 | 0.00 | 62 | 1009.8 |
| 20260508044020 | 93 | 123 | 7.8 | 13.0 | 0.00 | 0.00 | 0.00 | 64 | 1009.8 |
| 20260508043520 | 92 | 135 | 6.1 | 11.3 | 0.00 | 0.00 | 0.00 | 61 | 1009.8 |
| 20260508043039 | 92 | 173 | 7.0 | 11.3 | 0.00 | 0.00 | 0.00 | 65 | 1009.8 |
| 20260508042524 | 92 | 140 | 7.0 | 11.3 | 0.00 | 0.00 | 0.00 | 64 | 1009.9 |
| 20260508042022 | 93 | 113 | 7.0 | 11.3 | 0.00 | 0.00 | 0.00 | 63 | 1010.1 |
| 20260508041538 | 93 | 139 | 4.3 | 9.6 | 0.00 | 0.00 | 0.00 | 59 | 1010.1 |
| 20260508041024 | 93 | 120 | 7.0 | 9.6 | 0.00 | 0.00 | 0.00 | 62 | 1010.1 |
| 20260508040523 | 93 | 126 | 5.2 | 8.7 | 0.00 | 0.00 | 0.00 | 65 | 1010.2 |
| 20260508040047 | 93 | 155 | 5.2 | 9.6 | 0.00 | 0.00 | 0.00 | 61 | 1010.1 |
| 20260508035523 | 93 | 162 | 4.3 | 9.6 | 0.00 | 0.00 | 0.00 | 66 | 1010.2 |
| 20260508035023 | 92 | 141 | 7.0 | 9.6 | 0.00 | 0.00 | 0.00 | 64 | 1010.2 |
| 20260508034546 | 92 | 169 | 2.6 | 8.7 | 0.00 | 0.00 | 0.00 | 62 | 1010.3 |
| 20260508034023 | 93 | 142 | 2.6 | 10.4 | 0.00 | 0.00 | 0.00 | 62 | 1010.3 |
| 20260508033523 | 92 | 121 | 6.1 | 10.4 | 0.00 | 0.00 | 0.00 | 61 | 1010.3 |
| 20260508033046 | 92 | 134 | 6.1 | 10.4 | 0.00 | 0.00 | 0.00 | 64 | 1010.4 |
| 20260508032528 | 92 | 150 | 3.5 | 7.8 | 0.00 | 0.00 | 0.00 | 66 | 1010.5 |
| 20260508032020 | 92 | 143 | 5.2 | 7.8 | 0.00 | 0.00 | 0.00 | 64 | 1010.6 |
| 20260508031548 | 93 | 215 | 0.9 | 7.0 | 0.00 | 0.00 | 0.00 | 60 | 1010.7 |
| 20260508031023 | 93 | 136 | 2.6 | 7.0 | 0.00 | 0.00 | 0.00 | 59 | 1010.7 |
| 20260508030523 | 92 | 62 | 2.6 | 7.0 | 0.00 | 0.00 | 0.00 | 65 | 1010.8 |
| 20260508030039 | 91 | 103 | 3.5 | 7.0 | 0.00 | 0.00 | 0.00 | 66 | 1010.9 |
| 20260508025523 | 92 | 168 | 4.3 | 7.0 | 0.00 | 0.00 | 0.00 | 65 | 1011.0 |
| 20260508025026 | 92 | 115 | 4.3 | 8.7 | 0.00 | 0.00 | 0.00 | 64 | 1011.1 |
| 20260508024600 | 92 | 120 | 1.7 | 8.7 | 0.00 | 0.00 | 0.00 | 61 | 1011.1 |
| 20260508024025 | 93 | 155 | 3.5 | 8.7 | 0.00 | 0.00 | 0.00 | 65 | 1011.2 |
| 20260508023524 | 92 | 78 | 0.9 | 9.6 | 0.00 | 0.00 | 0.00 | 64 | 1011.2 |
| 20260508023038 | 92 | 98 | 1.7 | 9.6 | 0.00 | 0.00 | 0.00 | 63 | 1011.2 |
| 20260508022520 | 91 | 65 | 5.2 | 7.8 | 0.00 | 0.00 | 0.00 | 68 | 1011.3 |
| 20260508022020 | 91 | 126 | 3.5 | 7.0 | 0.00 | 0.00 | 0.00 | 61 | 1011.3 |
| 20260508021547 | 92 | 28 | 1.7 | 8.7 | 0.00 | 0.00 | 0.00 | 63 | 1011.5 |
| 20260508021023 | 91 | 49 | 2.6 | 8.7 | 0.00 | 0.00 | 0.00 | 62 | 1011.6 |
| 20260508020520 | 91 | 49 | 2.6 | 6.1 | 0.00 | 0.00 | 0.00 | 62 | 1011.6 |
| 20260508020048 | 91 | 101 | 1.7 | 5.2 | 0.00 | 0.00 | 0.00 | 62 | 1011.7 |
| 20260508015523 | 92 | 117 | 0.9 | 8.7 | 0.00 | 0.00 | 0.00 | 63 | 1011.8 |
| 20260508015020 | 91 | 90 | 2.6 | 8.7 | 0.00 | 0.00 | 0.00 | 65 | 1011.7 |
| 20260508014545 | 90 | 126 | 2.6 | 7.8 | 0.00 | 0.00 | 0.00 | 65 | 1011.7 |
| 20260508014024 | 90 | 151 | 2.6 | 7.8 | 0.00 | 0.00 | 0.00 | 65 | 1011.6 |
| 20260508013526 | 89 | 100 | 4.3 | 7.8 | 0.00 | 0.00 | 0.00 | 64 | 1011.7 |
| 20260508013038 | 89 | 173 | 5.2 | 14.8 | 0.00 | 0.00 | 0.00 | 67 | 1011.6 |
| 20260508012523 | 89 | 119 | 3.5 | 14.8 | 0.00 | 0.00 | 0.00 | 68 | 1011.7 |
| 20260508012022 | 89 | 180 | 0.9 | 5.2 | 0.00 | 0.00 | 0.00 | 68 | 1011.7 |
| 20260508011538 | 89 | 150 | 2.6 | 7.8 | 0.00 | 0.00 | 0.00 | 67 | 1011.8 |
| 20260508011020 | 89 | 132 | 1.7 | 8.7 | 0.00 | 0.00 | 0.00 | 69 | 1011.8 |
| 20260508010520 | 89 | 123 | 7.0 | 8.7 | 0.00 | 0.00 | 0.00 | 65 | 1011.8 |
| 20260508010051 | 89 | 55 | 1.7 | 7.8 | 0.00 | 0.00 | 0.00 | 66 | 1011.7 |
| 20260508005523 | 88 | 102 | 2.6 | 7.8 | 0.00 | 0.00 | 0.00 | 67 | 1011.8 |
| 20260508005023 | 88 | 111 | 2.6 | 7.0 | 0.00 | 0.00 | 0.00 | 67 | 1011.8 |
| 20260508004550 | 88 | 98 | 2.6 | 5.2 | 0.00 | 0.00 | 0.00 | 68 | 1011.9 |
| 20260508004023 | 87 | 141 | 0.9 | 3.5 | 0.00 | 0.00 | 0.00 | 69 | 1011.8 |
| 20260508003522 | 87 | 92 | 1.7 | 3.5 | 0.00 | 0.00 | 0.00 | 72 | 1011.8 |
| 20260508003035 | 87 | 183 | 0.0 | 2.6 | 0.00 | 0.00 | 0.00 | 67 | 1011.9 |
| 20260508002523 | 87 | 66 | 0.9 | 5.2 | 0.00 | 0.00 | 0.00 | 69 | 1011.9 |
| 20260508002022 | 87 | 80 | 0.9 | 5.2 | 0.00 | 0.00 | 0.00 | 67 | 1011.8 |
| 20260508001543 | 86 | 19 | 0.9 | 6.1 | 0.00 | 0.00 | 0.00 | 69 | 1011.9 |
| 20260508001020 | 86 | 159 | 0.9 | 6.1 | 0.00 | 0.00 | 0.00 | 71 | 1011.8 |
| 20260508000522 | 86 | 108 | 2.6 | 5.2 | 0.00 | 0.00 | 0.00 | 73 | 1011.9 |
| 20260508000034 | 86 | 156 | 1.7 | 3.5 | 0.00 | 0.00 | 0.00 | 71 | 1011.7 |
| 20260507235524 | 86 | 121 | 0.9 | 3.5 | 0.00 | 0.00 | 0.00 | 72 | 1011.6 |
| 20260507235023 | 86 | 115 | 1.7 | 3.5 | 0.00 | 0.00 | 0.00 | 71 | 1011.5 |
| 20260507234538 | 86 | 84 | 0.9 | 5.2 | 0.00 | 0.00 | 0.00 | 73 | 1011.6 |
| 20260507234021 | 85 | 56 | 1.7 | 5.2 | 0.00 | 0.00 | 0.00 | 76 | 1011.6 |
| 20260507233523 | 85 | 127 | 1.7 | 5.2 | 0.00 | 0.00 | 0.00 | 75 | 1011.6 |
| 20260507233039 | 84 | 121 | 0.9 | 2.6 | 0.00 | 0.00 | 0.00 | 76 | 1011.6 |
| 20260507232524 | 83 | 103 | 1.7 | 5.2 | 0.00 | 0.00 | 0.00 | 78 | 1011.5 |
| 20260507232024 | 83 | 82 | 0.9 | 5.2 | 0.00 | 0.00 | 0.00 | 78 | 1011.5 |
| 20260507231542 | 83 | 91 | 2.6 | 3.5 | 0.00 | 0.00 | 0.00 | 79 | 1011.5 |
| 20260507231020 | 82 | 79 | 2.6 | 3.5 | 0.00 | 0.00 | 0.00 | 79 | 1011.5 |
| 20260507230524 | 82 | 103 | 1.7 | 3.5 | 0.00 | 0.00 | 0.00 | 80 | 1011.5 |
| 20260507230048 | 81 | 80 | 0.0 | 1.7 | 0.00 | 0.00 | 0.00 | 83 | 1011.5 |
| 20260507225523 | 80 | 0 | 0.0 | 1.7 | 0.00 | 0.00 | 0.00 | 83 | 1011.4 |
| 20260507225020 | 80 | 0 | 0.0 | 1.7 | 0.00 | 0.00 | 0.00 | 86 | 1011.5 |
| 20260507224536 | 79 | 0 | 0.0 | 1.7 | 0.00 | 0.00 | 0.00 | 88 | 1011.5 |
| 20260507224020 | 78 | 218 | 0.0 | 1.7 | 0.00 | 0.00 | 0.00 | 89 | 1011.6 |
| 20260507223520 | 78 | 247 | 0.0 | 1.7 | 0.00 | 0.00 | 0.00 | 89 | 1011.6 |
| 20260507223035 | 77 | 0 | 0.0 | 0.0 | 0.00 | 0.00 | 0.00 | 89 | 1011.5 |
| 20260507222523 | 77 | 0 | 0.0 | 0.0 | 0.00 | 0.00 | 0.00 | 89 | 1011.4 |
| 20260507222023 | 77 | 0 | 0.0 | 0.9 | 0.00 | 0.00 | 0.00 | 90 | 1011.3 |
| 20260507221542 | 76 | 0 | 0.0 | 1.7 | 0.00 | 0.00 | 0.00 | 90 | 1011.3 |
| 20260507221027 | 76 | 0 | 0.0 | 1.7 | 0.00 | 0.00 | 0.00 | 90 | 1011.1 |
| 20260507220527 | 76 | 0 | 0.0 | 1.7 | 0.00 | 0.00 | 0.00 | 90 | 1011.1 |
| 20260507220042 | 76 | 0 | 0.0 | 1.7 | 0.00 | 0.00 | 0.00 | 91 | 1011.0 |
| 20260507215521 | 76 | 248 | 0.0 | 1.7 | 0.00 | 0.00 | 0.00 | 91 | 1010.8 |
| 20260507215023 | 76 | 248 | 0.0 | 1.7 | 0.00 | 0.00 | 0.00 | 91 | 1010.8 |
| 20260507214538 | 76 | 248 | 0.0 | 1.7 | 0.00 | 0.00 | 0.00 | 91 | 1010.7 |
| 20260507214024 | 76 | 0 | 0.0 | 0.9 | 0.00 | 0.00 | 0.00 | 91 | 1010.8 |
| 20260507213523 | 76 | 235 | 0.0 | 0.9 | 0.00 | 0.00 | 0.00 | 91 | 1010.8 |
| 20260507213037 | 76 | 0 | 0.0 | 0.9 | 0.00 | 0.00 | 0.00 | 91 | 1010.7 |
| 20260507212523 | 76 | 0 | 0.0 | 0.9 | 0.00 | 0.00 | 0.00 | 91 | 1010.7 |
| 20260507212021 | 76 | 0 | 0.0 | 0.9 | 0.00 | 0.00 | 0.00 | 91 | 1010.7 |
| 20260507211543 | 76 | 0 | 0.0 | 0.9 | 0.00 | 0.00 | 0.00 | 91 | 1010.7 |
| 20260507211025 | 76 | 0 | 0.0 | 0.9 | 0.00 | 0.00 | 0.00 | 91 | 1010.5 |
| 20260507210524 | 76 | 235 | 0.9 | 2.6 | 0.00 | 0.00 | 0.00 | 91 | 1010.4 |
| 20260507210046 | 76 | 228 | 0.9 | 2.6 | 0.00 | 0.00 | 0.00 | 91 | 1010.4 |
| 20260507205523 | 76 | 217 | 0.9 | 2.6 | 0.00 | 0.00 | 0.00 | 91 | 1010.4 |
| 20260507205019 | 76 | 0 | 0.0 | 1.7 | 0.00 | 0.00 | 0.00 | 91 | 1010.3 |
| 20260507204539 | 76 | 16 | 0.9 | 1.7 | 0.00 | 0.00 | 0.00 | 91 | 1010.2 |
| 20260507204022 | 76 | 16 | 0.0 | 1.7 | 0.00 | 0.00 | 0.00 | 91 | 1010.2 |
| 20260507203523 | 76 | 0 | 0.0 | 1.7 | 0.00 | 0.00 | 0.00 | 91 | 1010.2 |
| 20260507203106 | 76 | 16 | 0.0 | 0.9 | 0.00 | 0.00 | 0.00 | 91 | 1010.1 |
| 20260507202527 | 76 | 16 | 0.9 | 1.7 | 0.00 | 0.00 | 0.00 | 90 | 1010.1 |
| 20260507202021 | 76 | 16 | 0.0 | 1.7 | 0.00 | 0.00 | 0.00 | 90 | 1010.1 |
| 20260507201538 | 76 | 16 | 0.0 | 0.9 | 0.00 | 0.00 | 0.00 | 90 | 1010.1 |
| 20260507201020 | 76 | 0 | 0.0 | 0.9 | 0.00 | 0.00 | 0.00 | 90 | 1010.3 |
| 20260507200523 | 76 | 0 | 0.0 | 1.7 | 0.00 | 0.00 | 0.00 | 90 | 1010.3 |
| 20260507200043 | 77 | 0 | 0.0 | 1.7 | 0.00 | 0.00 | 0.00 | 90 | 1010.2 |
| 20260507195526 | 77 | 16 | 0.0 | 1.7 | 0.00 | 0.00 | 0.00 | 90 | 1010.2 |
| 20260507195023 | 77 | 16 | 0.0 | 1.7 | 0.00 | 0.00 | 0.00 | 90 | 1010.2 |
| 20260507194539 | 76 | 0 | 0.0 | 0.0 | 0.00 | 0.00 | 0.00 | 90 | 1010.1 |
| 20260507194024 | 76 | 0 | 0.0 | 0.0 | 0.00 | 0.00 | 0.00 | 90 | 1010.1 |
| 20260507193522 | 76 | 0 | 0.0 | 0.0 | 0.00 | 0.00 | 0.00 | 90 | 1009.9 |
| 20260507193041 | 76 | 0 | 0.0 | 1.7 | 0.00 | 0.00 | 0.00 | 90 | 1009.9 |
| 20260507192519 | 76 | 0 | 0.0 | 1.7 | 0.00 | 0.00 | 0.00 | 90 | 1009.9 |
| 20260507192020 | 77 | 0 | 0.0 | 1.7 | 0.00 | 0.00 | 0.00 | 90 | 1010.0 |
| 20260507191542 | 77 | 0 | 0.0 | 1.7 | 0.00 | 0.00 | 0.00 | 91 | 1010.0 |
| 20260507191024 | 77 | 0 | 0.0 | 1.7 | 0.00 | 0.00 | 0.00 | 90 | 1010.0 |
| 20260507190521 | 77 | 16 | 0.0 | 0.9 | 0.00 | 0.00 | 0.00 | 90 | 1010.1 |
| 20260507190045 | 77 | 16 | 0.9 | 1.7 | 0.00 | 0.00 | 0.00 | 89 | 1010.1 |
| 20260507185520 | 77 | 16 | 0.0 | 1.7 | 0.00 | 0.00 | 0.00 | 89 | 1010.0 |
| 20260507185023 | 77 | 0 | 0.0 | 0.0 | 0.00 | 0.00 | 0.00 | 89 | 1010.0 |
| 20260507184535 | 77 | 0 | 0.0 | 0.0 | 0.00 | 0.00 | 0.00 | 88 | 1009.9 |
| 20260507184020 | 77 | 0 | 0.0 | 0.0 | 0.00 | 0.00 | 0.00 | 87 | 1009.9 |
| 20260507183522 | 77 | 0 | 0.0 | 0.0 | 0.00 | 0.00 | 0.00 | 87 | 1009.8 |
| 20260507183039 | 77 | 0 | 0.0 | 0.0 | 0.00 | 0.00 | 0.00 | 86 | 1009.8 |
| 20260507182523 | 77 | 0 | 0.0 | 0.0 | 0.00 | 0.00 | 0.00 | 86 | 1009.8 |
| 20260507182019 | 77 | 0 | 0.0 | 0.0 | 0.00 | 0.00 | 0.00 | 86 | 1009.9 |
| 20260507181539 | 77 | 0 | 0.0 | 0.0 | 0.00 | 0.00 | 0.00 | 86 | 1009.9 |
| 20260507181029 | 77 | 0 | 0.0 | 0.9 | 0.00 | 0.00 | 0.00 | 86 | 1009.9 |
| 20260507180524 | 78 | 0 | 0.0 | 1.7 | 0.00 | 0.00 | 0.00 | 84 | 1009.9 |
| 20260507180041 | 78 | 0 | 0.0 | 1.7 | 0.00 | 0.00 | 0.00 | 83 | 1009.8 |
| 20260507175520 | 78 | 0 | 0.0 | 1.7 | 0.00 | 0.00 | 0.00 | 82 | 1009.9 |
| 20260507175020 | 78 | 0 | 0.0 | 0.0 | 0.00 | 0.00 | 0.00 | 81 | 1009.9 |
| 20260507174542 | 78 | 0 | 0.0 | 0.0 | 0.00 | 0.00 | 0.00 | 81 | 1009.9 |
| 20260507174027 | 79 | 0 | 0.0 | 0.0 | 0.00 | 0.00 | 0.00 | 81 | 1009.9 |
| 20260507173520 | 79 | 0 | 0.0 | 0.0 | 0.00 | 0.00 | 0.00 | 81 | 1009.9 |
| 20260507173114 | 79 | 0 | 0.0 | 0.0 | 0.00 | 0.00 | 0.00 | 80 | 1009.9 |
| 20260507172523 | 79 | 0 | 0.0 | 0.0 | 0.00 | 0.00 | 0.00 | 80 | 1009.9 |
| 20260507172021 | 79 | 0 | 0.0 | 0.0 | 0.00 | 0.00 | 0.00 | 81 | 1010.1 |
| 20260507171542 | 79 | 0 | 0.0 | 0.0 | 0.00 | 0.00 | 0.00 | 83 | 1010.1 |
| 20260507171021 | 80 | 0 | 0.0 | 0.0 | 0.00 | 0.00 | 0.00 | 79 | 1010.2 |
| 20260507170523 | 80 | 0 | 0.0 | 0.0 | 0.00 | 0.00 | 0.00 | 79 | 1010.2 |
| 20260507170040 | 80 | 0 | 0.0 | 0.0 | 0.00 | 0.00 | 0.00 | 78 | 1010.2 |
| 20260507165521 | 80 | 0 | 0.0 | 0.0 | 0.00 | 0.00 | 0.00 | 78 | 1010.1 |
| 20260507165023 | 80 | 0 | 0.0 | 0.0 | 0.00 | 0.00 | 0.00 | 79 | 1010.2 |
| 20260507164538 | 80 | 0 | 0.0 | 0.0 | 0.00 | 0.00 | 0.00 | 80 | 1010.2 |
| 20260507164024 | 80 | 0 | 0.0 | 0.0 | 0.00 | 0.00 | 0.00 | 81 | 1010.2 |
| 20260507163527 | 80 | 0 | 0.0 | 0.0 | 0.00 | 0.00 | 0.00 | 82 | 1010.3 |
| 20260507163039 | 80 | 0 | 0.0 | 0.0 | 0.00 | 0.00 | 0.00 | 78 | 1010.3 |
| 20260507162526 | 80 | 0 | 0.0 | 0.0 | 0.00 | 0.00 | 0.00 | 78 | 1010.3 |
| 20260507162023 | 80 | 0 | 0.0 | 0.0 | 0.00 | 0.00 | 0.00 | 77 | 1010.3 |
| 20260507161543 | 80 | 0 | 0.0 | 0.0 | 0.00 | 0.00 | 0.00 | 78 | 1010.3 |
| 20260507161023 | 80 | 0 | 0.0 | 0.0 | 0.00 | 0.00 | 0.00 | 79 | 1010.3 |
| 20260507160522 | 80 | 0 | 0.0 | 0.0 | 0.00 | 0.00 | 0.00 | 79 | 1010.3 |
| 20260507160044 | 80 | 0 | 0.0 | 0.0 | 0.00 | 0.00 | 0.00 | 78 | 1010.4 |
| 20260507155522 | 80 | 0 | 0.0 | 0.0 | 0.00 | 0.00 | 0.00 | 79 | 1010.4 |
| 20260507155023 | 80 | 0 | 0.0 | 0.0 | 0.00 | 0.00 | 0.00 | 80 | 1010.6 |
| 20260507154540 | 80 | 0 | 0.0 | 0.0 | 0.00 | 0.00 | 0.00 | 80 | 1010.8 |
| 20260507154022 | 80 | 0 | 0.0 | 0.0 | 0.00 | 0.00 | 0.00 | 80 | 1010.8 |
| 20260507153523 | 79 | 0 | 0.0 | 0.0 | 0.00 | 0.00 | 0.00 | 81 | 1010.9 |
| 20260507153039 | 79 | 0 | 0.0 | 0.0 | 0.00 | 0.00 | 0.00 | 82 | 1010.9 |
| 20260507152525 | 79 | 0 | 0.0 | 0.0 | 0.00 | 0.00 | 0.00 | 81 | 1010.9 |
| 20260507152031 | 79 | 0 | 0.0 | 1.7 | 0.00 | 0.00 | 0.00 | 81 | 1011.0 |
| 20260507151536 | 79 | 0 | 0.0 | 1.7 | 0.00 | 0.00 | 0.00 | 81 | 1011.1 |
| 20260507151023 | 79 | 0 | 0.0 | 1.7 | 0.00 | 0.00 | 0.00 | 82 | 1011.1 |
| 20260507150523 | 80 | 0 | 0.0 | 0.0 | 0.00 | 0.00 | 0.00 | 83 | 1011.1 |
| 20260507150043 | 80 | 0 | 0.0 | 0.0 | 0.00 | 0.00 | 0.00 | 81 | 1011.1 |
| 20260507145524 | 80 | 0 | 0.0 | 0.0 | 0.00 | 0.00 | 0.00 | 81 | 1011.2 |
| 20260507145027 | 80 | 0 | 0.0 | 0.0 | 0.00 | 0.00 | 0.00 | 81 | 1011.3 |
| 20260507144539 | 80 | 0 | 0.0 | 0.0 | 0.00 | 0.00 | 0.00 | 82 | 1011.3 |
| 20260507144023 | 80 | 0 | 0.0 | 0.0 | 0.00 | 0.00 | 0.00 | 84 | 1011.2 |
| 20260507143522 | 80 | 0 | 0.0 | 0.0 | 0.00 | 0.00 | 0.00 | 82 | 1011.2 |
| 20260507143045 | 80 | 0 | 0.0 | 0.0 | 0.00 | 0.00 | 0.00 | 82 | 1011.1 |
| 20260507142524 | 80 | 0 | 0.0 | 0.0 | 0.00 | 0.00 | 0.00 | 84 | 1011.1 |
| 20260507142027 | 80 | 0 | 0.0 | 0.0 | 0.00 | 0.00 | 0.00 | 84 | 1011.2 |
| 20260507141547 | 80 | 0 | 0.0 | 0.0 | 0.00 | 0.00 | 0.00 | 84 | 1011.1 |
| 20260507141022 | 80 | 0 | 0.0 | 0.0 | 0.00 | 0.00 | 0.00 | 85 | 1011.0 |
| 20260507140525 | 80 | 0 | 0.0 | 0.0 | 0.00 | 0.00 | 0.00 | 84 | 1011.1 |
| 20260507140041 | 80 | 0 | 0.0 | 0.0 | 0.00 | 0.00 | 0.00 | 82 | 1011.1 |
| 20260507135522 | 80 | 0 | 0.0 | 0.0 | 0.00 | 0.00 | 0.00 | 82 | 1011.1 |
| 20260507135023 | 81 | 0 | 0.0 | 0.0 | 0.00 | 0.00 | 0.00 | 81 | 1011.1 |
| 20260507134539 | 81 | 0 | 0.0 | 0.0 | 0.00 | 0.00 | 0.00 | 79 | 1011.1 |
| 20260507134019 | 81 | 0 | 0.0 | 0.0 | 0.00 | 0.00 | 0.00 | 79 | 1010.9 |
| 20260507133521 | 81 | 0 | 0.0 | 0.0 | 0.00 | 0.00 | 0.00 | 77 | 1010.9 |
| 20260507133106 | 81 | 0 | 0.0 | 0.0 | 0.00 | 0.00 | 0.00 | 77 | 1010.9 |
| 20260507132529 | 81 | 0 | 0.0 | 1.7 | 0.00 | 0.00 | 0.00 | 78 | 1010.7 |
| 20260507132022 | 81 | 0 | 0.0 | 1.7 | 0.00 | 0.00 | 0.00 | 79 | 1010.6 |
| 20260507131544 | 81 | 0 | 0.0 | 1.7 | 0.00 | 0.00 | 0.00 | 78 | 1010.6 |
| 20260507131022 | 81 | 0 | 0.0 | 1.7 | 0.00 | 0.00 | 0.00 | 77 | 1010.5 |
| 20260507130521 | 81 | 350 | 0.0 | 1.7 | 0.00 | 0.00 | 0.00 | 77 | 1010.4 |
| 20260507130048 | 81 | 340 | 1.7 | 1.7 | 0.00 | 0.00 | 0.00 | 78 | 1010.4 |